ACA716 CYYZ-KLGA

Flight info

Callsign ACA716
Flight time 1h 5m
Altitude 33000
Route KEPTA3 BMPAH DCT AEVON DCT AUDIL DCT RAHKS VADDR1
Aircraft A320/M-SDE3FGHIRWY/LB1

Departure

Time 2026-05-08 00:05
Airport Toronto Pearson International Airport (CYYZ)

Arrival

Time 2026-05-08 01:10
Airport LaGuardia Airport (KLGA)
Time Latitude Longitude Altitude Speed Heading
2026-05-07 23:22 43.67847 -79.61240 570 ft 0 kts 91°
2026-05-07 23:53 43.67847 -79.61247 561 ft 4 kts 92°
2026-05-07 23:54 43.67848 -79.61284 565 ft 4 kts 95°
2026-05-07 23:54 43.67852 -79.61321 568 ft 4 kts 103°
2026-05-07 23:54 43.67860 -79.61355 571 ft 4 kts 128°
2026-05-07 23:54 43.67875 -79.61369 570 ft 1 kts 189°
2026-05-07 23:55 43.67876 -79.61369 570 ft 0 kts 189°
2026-05-07 23:58 43.67870 -79.61371 571 ft 5 kts 189°
2026-05-07 23:59 43.67839 -79.61383 567 ft 5 kts 206°
2026-05-07 23:59 43.67784 -79.61462 565 ft 14 kts 227°
2026-05-07 23:59 43.67722 -79.61550 568 ft 12 kts 226°
2026-05-07 23:59 43.67670 -79.61627 562 ft 10 kts 226°
2026-05-08 00:00 43.67616 -79.61691 569 ft 15 kts 218°
2026-05-08 00:00 43.67547 -79.61739 571 ft 9 kts 173°
2026-05-08 00:00 43.67461 -79.61640 573 ft 22 kts 139°
2026-05-08 00:00 43.67346 -79.61489 564 ft 24 kts 135°
2026-05-08 00:01 43.67237 -79.61346 564 ft 13 kts 137°
2026-05-08 00:01 43.67171 -79.61374 571 ft 15 kts 223°
2026-05-08 00:01 43.67067 -79.61508 572 ft 22 kts 222°
2026-05-08 00:01 43.66950 -79.61653 571 ft 23 kts 223°
2026-05-08 00:02 43.66829 -79.61804 569 ft 24 kts 222°
2026-05-08 00:02 43.66709 -79.61958 568 ft 24 kts 222°
2026-05-08 00:02 43.66586 -79.62111 568 ft 24 kts 222°
2026-05-08 00:02 43.66470 -79.62258 565 ft 20 kts 222°
2026-05-08 00:03 43.66366 -79.62387 562 ft 20 kts 221°
2026-05-08 00:03 43.66289 -79.62483 562 ft 11 kts 222°
2026-05-08 00:03 43.66228 -79.62496 561 ft 10 kts 158°
2026-05-08 00:03 43.66154 -79.62410 565 ft 14 kts 137°
2026-05-08 00:04 43.66117 -79.62330 566 ft 7 kts 78°
2026-05-08 00:04 43.66137 -79.62290 565 ft 6 kts 42°
2026-05-08 00:04 43.66248 -79.62131 568 ft 56 kts 47°
2026-05-08 00:04 43.66687 -79.61493 563 ft 125 kts 46°
2026-05-08 00:05 43.67404 -79.60454 617 ft 172 kts 46°
2026-05-08 00:05 43.68226 -79.59243 1380 ft 171 kts 46°
2026-05-08 00:05 43.69024 -79.58032 2134 ft 176 kts 46°
2026-05-08 00:05 43.69879 -79.56748 2693 ft 188 kts 44°
2026-05-08 00:06 43.70827 -79.55385 3074 ft 205 kts 44°
2026-05-08 00:06 43.71870 -79.53909 3379 ft 227 kts 43°
2026-05-08 00:06 43.73032 -79.52256 3715 ft 252 kts 45°
2026-05-08 00:06 43.74097 -79.50259 4378 ft 265 kts 64°
2026-05-08 00:07 43.74475 -79.47730 5143 ft 275 kts 94°
2026-05-08 00:07 43.73904 -79.45222 5969 ft 278 kts 125°
2026-05-08 00:07 43.72517 -79.43381 6749 ft 279 kts 150°
2026-05-08 00:07 43.70868 -79.41929 7576 ft 284 kts 150°
2026-05-08 00:08 43.69199 -79.40426 8363 ft 289 kts 150°
2026-05-08 00:08 43.67536 -79.38907 9163 ft 293 kts 151°
2026-05-08 00:08 43.65831 -79.37322 9968 ft 298 kts 148°
2026-05-08 00:08 43.64180 -79.35481 10449 ft 315 kts 145°
2026-05-08 00:09 43.62425 -79.33505 10720 ft 335 kts 145°
2026-05-08 00:09 43.60595 -79.31442 11347 ft 343 kts 145°
2026-05-08 00:09 43.58741 -79.29344 12102 ft 346 kts 145°
2026-05-08 00:09 43.56876 -79.27241 12866 ft 348 kts 145°
2026-05-08 00:10 43.54989 -79.25117 13633 ft 351 kts 146°
2026-05-08 00:10 43.53114 -79.23012 14304 ft 354 kts 145°
2026-05-08 00:10 43.51197 -79.20865 14926 ft 357 kts 145°
2026-05-08 00:10 43.49265 -79.18700 15581 ft 360 kts 145°
2026-05-08 00:11 43.47315 -79.16515 16198 ft 363 kts 145°
2026-05-08 00:11 43.45431 -79.14157 16787 ft 371 kts 136°
2026-05-08 00:11 43.43847 -79.11308 17379 ft 379 kts 124°
2026-05-08 00:11 43.42645 -79.08049 17977 ft 386 kts 115°
2026-05-08 00:12 43.41595 -79.04623 18508 ft 390 kts 115°
2026-05-08 00:12 43.40546 -79.01220 19005 ft 394 kts 115°
2026-05-08 00:12 43.39468 -78.97743 19524 ft 397 kts 115°
2026-05-08 00:12 43.38378 -78.94241 20066 ft 400 kts 115°
2026-05-08 00:13 43.37277 -78.90716 20597 ft 403 kts 115°
2026-05-08 00:13 43.36165 -78.87164 21124 ft 406 kts 115°
2026-05-08 00:13 43.35044 -78.83584 21643 ft 409 kts 115°
2026-05-08 00:13 43.33916 -78.79978 22170 ft 413 kts 115°
2026-05-08 00:14 43.32779 -78.76343 22691 ft 416 kts 115°
2026-05-08 00:14 43.31633 -78.72685 23206 ft 419 kts 115°
2026-05-08 00:14 43.30475 -78.68998 23667 ft 422 kts 115°
2026-05-08 00:14 43.29304 -78.65284 24035 ft 426 kts 116°
2026-05-08 00:15 43.28136 -78.61587 24385 ft 430 kts 116°
2026-05-08 00:15 43.26941 -78.57802 24737 ft 434 kts 116°
2026-05-08 00:15 43.25739 -78.53995 25082 ft 438 kts 116°
2026-05-08 00:15 43.24522 -78.50140 25345 ft 443 kts 117°
2026-05-08 00:16 43.23289 -78.46237 25629 ft 449 kts 117°
2026-05-08 00:16 43.22040 -78.42302 25940 ft 453 kts 117°
2026-05-08 00:16 43.20775 -78.38327 26259 ft 456 kts 118°
2026-05-08 00:16 43.19457 -78.34357 26569 ft 458 kts 122°
2026-05-08 00:17 43.17806 -78.30653 26881 ft 455 kts 131°
2026-05-08 00:17 43.15861 -78.27310 27174 ft 455 kts 135°
2026-05-08 00:17 43.13844 -78.23952 27482 ft 459 kts 135°
2026-05-08 00:17 43.11812 -78.20559 27798 ft 462 kts 135°
2026-05-08 00:18 43.09777 -78.17147 28100 ft 465 kts 135°
2026-05-08 00:18 43.07723 -78.13701 28403 ft 468 kts 136°
2026-05-08 00:18 43.05658 -78.10241 28695 ft 472 kts 136°
2026-05-08 00:18 43.03574 -78.06755 28981 ft 475 kts 136°
2026-05-08 00:19 43.01476 -78.03260 29269 ft 477 kts 136°
2026-05-08 00:19 42.99359 -77.99746 29511 ft 481 kts 137°
2026-05-08 00:19 42.97250 -77.96251 29695 ft 485 kts 137°
2026-05-08 00:19 42.95161 -77.92590 29897 ft 495 kts 131°
2026-05-08 00:20 42.93412 -77.88484 30108 ft 507 kts 121°
2026-05-08 00:20 42.92110 -77.83956 30322 ft 517 kts 111°
2026-05-08 00:20 42.91309 -77.79137 30542 ft 525 kts 101°
2026-05-08 00:20 42.91030 -77.74149 30761 ft 530 kts 94°
2026-05-08 00:21 42.90919 -77.69123 30994 ft 532 kts 94°
2026-05-08 00:21 42.90802 -77.64071 31237 ft 532 kts 94°
2026-05-08 00:21 42.90678 -77.59035 31527 ft 531 kts 94°
2026-05-08 00:21 42.90549 -77.54062 31784 ft 532 kts 94°
2026-05-08 00:22 42.90413 -77.49012 32052 ft 533 kts 94°
2026-05-08 00:22 42.90275 -77.43968 32343 ft 533 kts 94°
2026-05-08 00:22 42.90134 -77.38919 32648 ft 532 kts 94°
2026-05-08 00:22 42.89992 -77.33870 32872 ft 532 kts 94°
2026-05-08 00:23 42.89711 -77.23723 32924 ft 541 kts 94°
2026-05-08 00:23 42.89418 -77.13427 32927 ft 545 kts 95°
2026-05-08 00:24 42.89116 -77.03091 32934 ft 546 kts 95°
2026-05-08 00:24 42.88807 -76.92843 32930 ft 543 kts 95°
2026-05-08 00:25 42.88480 -76.82579 32898 ft 542 kts 95°
2026-05-08 00:25 42.88137 -76.72307 32910 ft 543 kts 95°
2026-05-08 00:26 42.87799 -76.62029 32915 ft 543 kts 95°
2026-05-08 00:26 42.87455 -76.51735 32919 ft 543 kts 96°
2026-05-08 00:27 42.86128 -76.41725 32898 ft 532 kts 114°
2026-05-08 00:27 42.83313 -76.32578 32900 ft 526 kts 121°
2026-05-08 00:28 42.80293 -76.23498 32907 ft 527 kts 121°
2026-05-08 00:28 42.77267 -76.14387 32908 ft 530 kts 121°
2026-05-08 00:29 42.74228 -76.05238 32892 ft 530 kts 122°
2026-05-08 00:29 42.71178 -75.96111 32903 ft 530 kts 122°
2026-05-08 00:30 42.68107 -75.86986 32909 ft 530 kts 122°
2026-05-08 00:30 42.65056 -75.77941 32864 ft 530 kts 122°
2026-05-08 00:31 42.61982 -75.68843 32888 ft 530 kts 122°
2026-05-08 00:31 42.58904 -75.59753 32886 ft 530 kts 122°
2026-05-08 00:32 42.55811 -75.50674 32887 ft 530 kts 122°
2026-05-08 00:32 42.52710 -75.41608 32851 ft 530 kts 123°
2026-05-08 00:33 42.49629 -75.32617 32909 ft 530 kts 123°
2026-05-08 00:33 42.46520 -75.23569 32888 ft 529 kts 123°
2026-05-08 00:34 42.43317 -75.14581 32909 ft 529 kts 124°
2026-05-08 00:34 42.40013 -75.05693 32885 ft 528 kts 125°
2026-05-08 00:35 42.36717 -74.96816 32895 ft 528 kts 125°
2026-05-08 00:35 42.33471 -74.87995 32832 ft 529 kts 125°
2026-05-08 00:36 42.31834 -74.83542 32568 ft 529 kts 125°
2026-05-08 00:36 42.30196 -74.79095 32064 ft 529 kts 125°
2026-05-08 00:36 42.28538 -74.74617 30691 ft 538 kts 125°
2026-05-08 00:36 42.26847 -74.70068 29289 ft 545 kts 125°
2026-05-08 00:37 42.25149 -74.65494 28122 ft 543 kts 125°
2026-05-08 00:37 42.23460 -74.60943 26887 ft 542 kts 125°
2026-05-08 00:37 42.21777 -74.56412 25614 ft 540 kts 125°
2026-05-08 00:38 42.18438 -74.47453 23253 ft 532 kts 124°
2026-05-08 00:38 42.16821 -74.43093 21930 ft 513 kts 124°
2026-05-08 00:38 42.15252 -74.38861 20685 ft 497 kts 124°
2026-05-08 00:38 42.13749 -74.34829 20256 ft 466 kts 124°
2026-05-08 00:39 42.12306 -74.30977 19573 ft 458 kts 124°
2026-05-08 00:39 42.10785 -74.27160 19014 ft 465 kts 128°
2026-05-08 00:39 42.08997 -74.23536 18404 ft 465 kts 131°
2026-05-08 00:39 42.07176 -74.19949 17938 ft 463 kts 130°
2026-05-08 00:40 42.05376 -74.16365 17643 ft 461 kts 130°
2026-05-08 00:40 42.03596 -74.12800 17195 ft 458 kts 130°
2026-05-08 00:40 42.01827 -74.09250 16764 ft 456 kts 129°
2026-05-08 00:40 42.00089 -74.05769 16317 ft 453 kts 129°
2026-05-08 00:41 41.98334 -74.02261 15896 ft 451 kts 129°
2026-05-08 00:41 41.96588 -73.98782 15449 ft 449 kts 129°
2026-05-08 00:41 41.94839 -73.95313 15030 ft 447 kts 129°
2026-05-08 00:41 41.93097 -73.91861 14596 ft 445 kts 129°
2026-05-08 00:42 41.91175 -73.88656 14173 ft 437 kts 139°
2026-05-08 00:42 41.88894 -73.86031 13762 ft 428 kts 150°
2026-05-08 00:42 41.86346 -73.84051 13306 ft 419 kts 161°
2026-05-08 00:42 41.83640 -73.82744 12924 ft 409 kts 171°
2026-05-08 00:43 41.80872 -73.82089 12531 ft 400 kts 180°
2026-05-08 00:43 41.78119 -73.82025 12146 ft 395 kts 186°
2026-05-08 00:43 41.75414 -73.82082 11770 ft 394 kts 186°
2026-05-08 00:43 41.72680 -73.82134 11395 ft 389 kts 186°
2026-05-08 00:44 41.70034 -73.82172 11240 ft 371 kts 186°
2026-05-08 00:44 41.67510 -73.82206 11113 ft 354 kts 187°
2026-05-08 00:44 41.65140 -73.82565 10987 ft 333 kts 197°
2026-05-08 00:44 41.62913 -73.83147 10860 ft 319 kts 197°
2026-05-08 00:45 41.60775 -73.83699 10735 ft 307 kts 197°
2026-05-08 00:45 41.58720 -73.84228 10610 ft 295 kts 197°
2026-05-08 00:45 41.56738 -73.84737 10400 ft 287 kts 197°
2026-05-08 00:45 41.54791 -73.85241 10313 ft 285 kts 197°
2026-05-08 00:46 41.52875 -73.85743 10194 ft 284 kts 197°
2026-05-08 00:46 41.50937 -73.86250 10076 ft 284 kts 197°
2026-05-08 00:46 41.48997 -73.86757 9897 ft 285 kts 197°
2026-05-08 00:46 41.47059 -73.87262 9653 ft 283 kts 197°
2026-05-08 00:47 41.45094 -73.87571 9409 ft 288 kts 184°
2026-05-08 00:47 41.43097 -73.87190 9182 ft 294 kts 168°
2026-05-08 00:47 41.41218 -73.86080 8953 ft 299 kts 151°
2026-05-08 00:47 41.39494 -73.84521 8704 ft 299 kts 149°
2026-05-08 00:48 41.37801 -73.82978 8475 ft 298 kts 149°
2026-05-08 00:48 41.36096 -73.81429 8243 ft 296 kts 149°
2026-05-08 00:48 41.34400 -73.79890 8053 ft 295 kts 149°
2026-05-08 00:48 41.32709 -73.78356 8002 ft 294 kts 149°
2026-05-08 00:49 41.31015 -73.76821 8018 ft 294 kts 149°
2026-05-08 00:49 41.29325 -73.75289 8014 ft 294 kts 148°
2026-05-08 00:49 41.27632 -73.73757 8012 ft 294 kts 149°
2026-05-08 00:49 41.25936 -73.72228 8014 ft 295 kts 149°
2026-05-08 00:50 41.24240 -73.70700 8014 ft 295 kts 149°
2026-05-08 00:50 41.22566 -73.69193 7908 ft 294 kts 149°
2026-05-08 00:50 41.20873 -73.67668 7456 ft 294 kts 149°
2026-05-08 00:50 41.19190 -73.66156 7159 ft 289 kts 149°
2026-05-08 00:51 41.17534 -73.64667 7099 ft 288 kts 149°
2026-05-08 00:51 41.15873 -73.63173 7019 ft 289 kts 149°
2026-05-08 00:51 41.14176 -73.61755 6926 ft 286 kts 159°
2026-05-08 00:51 41.12300 -73.61009 6845 ft 279 kts 178°
2026-05-08 00:52 41.10375 -73.60944 6648 ft 275 kts 186°
2026-05-08 00:52 41.08467 -73.61040 6402 ft 274 kts 187°
2026-05-08 00:52 41.06570 -73.61156 6148 ft 272 kts 187°
2026-05-08 00:52 41.04704 -73.61278 5888 ft 272 kts 187°
2026-05-08 00:53 41.02817 -73.61407 5627 ft 271 kts 187°
2026-05-08 00:53 41.00932 -73.61548 5365 ft 271 kts 187°
2026-05-08 00:53 40.99053 -73.61717 5109 ft 270 kts 187°
2026-05-08 00:53 40.97178 -73.61896 4864 ft 270 kts 187°
2026-05-08 00:54 40.95307 -73.62081 4597 ft 270 kts 187°
2026-05-08 00:54 40.93442 -73.62271 4331 ft 269 kts 187°
2026-05-08 00:54 40.91584 -73.62540 4090 ft 266 kts 197°
2026-05-08 00:54 40.89860 -73.63390 4004 ft 264 kts 206°
2026-05-08 00:55 40.88181 -73.64384 4012 ft 265 kts 207°
2026-05-08 00:55 40.86502 -73.65396 4010 ft 265 kts 207°
2026-05-08 00:55 40.84833 -73.66415 4012 ft 263 kts 207°
2026-05-08 00:55 40.83177 -73.67440 4013 ft 263 kts 207°
2026-05-08 00:56 40.81520 -73.68470 4009 ft 263 kts 207°
2026-05-08 00:56 40.79867 -73.69509 4012 ft 264 kts 207°
2026-05-08 00:56 40.78206 -73.70564 4007 ft 264 kts 209°
2026-05-08 00:56 40.76792 -73.72048 4025 ft 260 kts 232°
2026-05-08 00:57 40.75718 -73.73963 4025 ft 260 kts 237°
2026-05-08 00:57 40.74697 -73.75933 4026 ft 261 kts 237°
2026-05-08 00:57 40.73669 -73.77944 4025 ft 260 kts 240°
2026-05-08 00:57 40.73007 -73.80130 4025 ft 258 kts 255°
2026-05-08 00:58 40.72552 -73.82415 4023 ft 258 kts 257°
2026-05-08 00:58 40.72119 -73.84710 4024 ft 258 kts 257°
2026-05-08 00:58 40.71695 -73.87012 4025 ft 258 kts 257°
2026-05-08 00:58 40.71269 -73.89313 4026 ft 259 kts 257°
2026-05-08 00:59 40.70838 -73.91608 4025 ft 257 kts 257°
2026-05-08 00:59 40.70407 -73.93897 4025 ft 258 kts 257°
2026-05-08 00:59 40.69982 -73.96196 4025 ft 258 kts 257°
2026-05-08 00:59 40.69568 -73.98470 4024 ft 259 kts 257°
2026-05-08 01:00 40.69145 -74.00770 4022 ft 258 kts 257°
2026-05-08 01:00 40.68726 -74.03070 4023 ft 258 kts 257°
2026-05-08 01:00 40.68176 -74.05310 4021 ft 258 kts 240°
2026-05-08 01:00 40.66971 -74.07050 4036 ft 260 kts 220°
2026-05-08 01:01 40.65532 -74.08506 4033 ft 259 kts 218°
2026-05-08 01:01 40.64134 -74.09864 4030 ft 241 kts 218°
2026-05-08 01:01 40.62826 -74.11120 3991 ft 226 kts 218°
2026-05-08 01:01 40.61577 -74.12317 3791 ft 220 kts 217°
2026-05-08 01:02 40.60363 -74.13489 3484 ft 220 kts 217°
2026-05-08 01:02 40.59036 -74.14470 3176 ft 221 kts 194°
2026-05-08 01:02 40.57517 -74.14373 3029 ft 224 kts 158°
2026-05-08 01:02 40.56257 -74.13210 3033 ft 224 kts 129°
2026-05-08 01:03 40.55569 -74.11406 3032 ft 222 kts 99°
2026-05-08 01:03 40.55629 -74.09409 3031 ft 220 kts 70°
2026-05-08 01:03 40.56397 -74.07706 3032 ft 217 kts 42°
2026-05-08 01:03 40.57556 -74.06440 3032 ft 217 kts 37°
2026-05-08 01:04 40.58733 -74.05194 3041 ft 217 kts 37°
2026-05-08 01:04 40.59909 -74.03943 3043 ft 218 kts 38°
2026-05-08 01:04 40.61081 -74.02690 3046 ft 217 kts 37°
2026-05-08 01:04 40.62237 -74.01452 3045 ft 217 kts 38°
2026-05-08 01:05 40.63411 -74.00195 3043 ft 217 kts 37°
2026-05-08 01:05 40.64573 -73.98949 3044 ft 214 kts 37°
2026-05-08 01:05 40.65725 -73.97716 3043 ft 212 kts 37°
2026-05-08 01:05 40.66895 -73.96647 2949 ft 200 kts 31°
2026-05-08 01:06 40.68039 -73.95662 2820 ft 191 kts 32°
2026-05-08 01:06 40.69129 -73.94717 2657 ft 184 kts 32°
2026-05-08 01:06 40.70083 -73.93636 2507 ft 176 kts 45°
2026-05-08 01:06 40.70899 -73.92470 2384 ft 172 kts 45°
2026-05-08 01:07 40.71653 -73.91310 2238 ft 166 kts 55°
2026-05-08 01:07 40.72090 -73.89919 2056 ft 165 kts 75°
2026-05-08 01:07 40.72329 -73.88481 1821 ft 154 kts 74°
2026-05-08 01:07 40.72558 -73.87148 1578 ft 145 kts 74°
2026-05-08 01:08 40.72782 -73.85870 1371 ft 142 kts 74°
2026-05-08 01:08 40.73177 -73.84712 1160 ft 137 kts 49°
2026-05-08 01:08 40.73880 -73.83891 977 ft 134 kts 29°
2026-05-08 01:08 40.74739 -73.83456 796 ft 133 kts
2026-05-08 01:09 40.75660 -73.83501 595 ft 134 kts 345°
2026-05-08 01:09 40.76431 -73.84150 348 ft 134 kts 311°
2026-05-08 01:09 40.76947 -73.85179 141 ft 135 kts 306°
2026-05-08 01:09 40.77447 -73.86210 18 ft 126 kts 302°
2026-05-08 01:10 40.77780 -73.86911 15 ft 58 kts 303°
2026-05-08 01:10 40.77911 -73.87185 14 ft 20 kts 301°
2026-05-08 01:10 40.77902 -73.87313 14 ft 10 kts 247°
2026-05-08 01:10 40.77893 -73.87341 14 ft 0 kts 246°
2026-05-08 01:11 40.77884 -73.87364 14 ft 7 kts 234°
2026-05-08 01:11 40.77801 -73.87400 14 ft 15 kts 169°
2026-05-08 01:11 40.77772 -73.87343 15 ft 10 kts 93°
2026-05-08 01:11 40.77765 -73.87256 15 ft 9 kts 105°
2026-05-08 01:12 40.77730 -73.87177 15 ft 10 kts 122°
2026-05-08 01:12 40.77696 -73.87105 15 ft 9 kts 121°
2026-05-08 01:12 40.77663 -73.87037 14 ft 11 kts 122°
2026-05-08 01:12 40.77593 -73.86886 13 ft 22 kts 123°
2026-05-08 01:13 40.77504 -73.86726 13 ft 22 kts 129°
2026-05-08 01:13 40.77422 -73.86554 12 ft 22 kts 122°
2026-05-08 01:13 40.77386 -73.86476 13 ft 6 kts 121°
2026-05-08 01:13 40.77359 -73.86419 12 ft 5 kts 123°
2026-05-08 01:14 40.77335 -73.86370 12 ft 16 kts 122°
2026-05-08 01:14 40.77302 -73.86293 12 ft 4 kts 97°
2026-05-08 01:14 40.77364 -73.86281 13 ft 17 kts 325°
2026-05-08 01:14 40.77436 -73.86424 12 ft 20 kts 303°
2026-05-08 01:15 40.77474 -73.86565 13 ft 15 kts 245°
2026-05-08 01:15 40.77460 -73.86644 12 ft 12 kts 264°
2026-05-08 01:15 40.77430 -73.86692 18 ft 3 kts 202°
2026-05-08 01:15 40.77379 -73.86690 19 ft 8 kts 192°
2026-05-08 01:16 40.77354 -73.86740 19 ft 4 kts 246°
2026-05-08 01:16 40.77350 -73.86751 19 ft 1 kts 246°
2026-05-08 01:16 40.77349 -73.86754 19 ft 0 kts 246°